Location: Unspecified
(0.0000°N, 0.0000°E)
Time: 19:36:23
(UTC+00:00)

Envisat - Pass Details

Date: 21 October 2021
Orbit: 764 x 766 km, 98.2° (Epoch: 24 October)

Event Time Altitude Azimuth Distance (km) Brightness Sun altitude
Rises 04:41:39 0° 11° (NNE) 3,213 6.2 -15.5°
Reaches altitude 10° 04:43:56 10° 11° (NNE) 2,290 5.5 -14.9°
Maximum altitude 04:49:00 88° 285° (WNW) 768 3.0 -13.7°
Drops below altitude 10° 04:54:05 10° 193° (SSW) 2,301 5.5 -12.4°
Sets 04:56:23 0° 192° (SSW) 3,229 6.2 -11.9°
